[[{"header":{"parameterUnit":"m.s-1","parameterCategory":1,"la1":30.2992,"la2":30.254,"lo1":-89.0895,"lo2":-89.0443,"dy":0.0025,"dx":0.0025,"nx":19,"ny":19,"refTime":"2026-04-16T09:00:00:Z","depth":0,"parameterNumber":2,"parameterNumberName":"U-component_of_WINDS"},"data":[0,0,0,-0.4743,-0.4741,-0.4644,-0.4643,-0.4539,-0.4538,0,0,0,0,0,0,0,0,0,0,0,-0.4783,-0.4783,-0.4743,-0.4741,-0.4644,-0.4643,-0.4539,-0.4538,0,0,0,0,0,0,0,0,0,0,0,-0.4784,-0.4783,-0.4783,-0.474,-0.4644,-0.4643,-0.454,-0.4606,0,0,0,0,0,0,0,0,0,0,-0.4696,-0.4746,-0.4783,-0.4783,-0.474,-0.4644,-0.4643,-0.4608,-0.4601,-0.4592,0,-0.4586,0,-0.4561,-0.4533,-0.4532,0,0,0,-0.4732,-0.4752,-0.4715,-0.4783,-0.4739,-0.4644,-0.4685,-0.4604,-0.4596,-0.4583,-0.4585,-0.458,-0.4559,-0.4532,-0.4532,-0.4507,-0.4507,0,0,-0.4737,-0.4772,-0.472,-0.471,-0.4726,-0.4688,-0.4682,-0.4599,-0.4604,-0.4584,-0.4577,-0.4558,-0.4532,-0.4531,-0.4507,-0.4507,0,0,0,-0.4758,-0.4777,-0.4741,-0.4715,-0.4696,-0.4685,-0.4678,-0.4607,-0.4593,-0.4576,-0.4556,-0.4531,-0.453,-0.4506,-0.4507,-0.4557,0,0,0,-0.4761,-0.4789,-0.4744,-0.4765,-0.4698,-0.465,-0.4689,-0.4599,-0.4588,-0.4557,-0.4531,-0.4529,-0.4506,-0.4507,-0.4555,-0.4575,0,0,0,-0.4786,-0.4792,-0.4782,-0.4767,-0.4726,-0.4651,-0.4631,-0.4595,-0.4576,-0.4532,-0.4529,-0.4506,-0.4506,-0.4553,-0.4571,-0.4579,0,0,0,-0.4822,-0.4827,-0.4783,-0.4782,-0.4727,-0.4683,-0.4631,-0.4596,-0.4565,-0.4531,-0.4506,-0.4507,-0.4552,-0.4569,-0.4577,-0.4592,-0.4602,0,0,-0.4849,-0.4832,-0.4828,-0.4786,-0.4758,-0.4695,-0.4674,-0.4611,-0.4574,-0.4532,-0.4531,-0.4555,-0.4571,-0.4579,-0.4642,-0.465,0,0,0,-0.4849,-0.4847,-0.4832,-0.4803,-0.4756,-0.4716,-0.4653,-0.463,-0.4592,-0.456,-0.4559,-0.4567,-0.457,-0.4576,-0.4582,-0.4583,-0.4511,-0.4511,-0.4511,-0.4938,-0.4891,-0.4882,-0.4823,-0.4796,-0.4731,-0.4705,-0.4663,-0.4623,-0.4624,-0.4611,-0.4655,-0.4663,-0.4668,-0.4669,-0.4615,-0.4615,-0.4615,-0.4615,-0.4974,-0.4963,-0.491,-0.4883,-0.4833,-0.4809,-0.4747,-0.472,-0.4691,-0.4661,-0.4661,-0.4632,-0.4678,-0.4676,-0.4618,-0.4618,-0.4617,-0.4617,-0.4617,-0.5027,-0.5014,-0.4986,-0.494,-0.4911,-0.4851,-0.4826,-0.4781,-0.4739,-0.4739,-0.4721,-0.472,-0.4714,-0.4734,-0.4734,-0.4734,-0.4734,-0.4734,-0.4735,-0.5095,-0.5061,-0.5045,-0.4995,-0.4971,-0.4934,-0.487,-0.4845,-0.4807,-0.4776,-0.4776,-0.4737,-0.4691,-0.468,-0.4737,-0.4736,-0.4736,-0.4736,-0.4736,-0.5149,-0.513,-0.5105,-0.5081,-0.5019,-0.4994,-0.4937,-0.4891,-0.4864,-0.4854,-0.4814,-0.4787,-0.4767,-0.4761,-0.4752,-0.4824,-0.4824,-0.4824,-0.4824,-0.5195,-0.518,-0.5145,-0.511,-0.5071,-0.5017,-0.4992,-0.4942,-0.4887,-0.4868,-0.4851,-0.4836,-0.4832,-0.4814,-0.4807,-0.4798,-0.4879,-0.488,-0.488,-0.5226,-0.5206,-0.5192,-0.5138,-0.5087,-0.5044,-0.5019,-0.4981,-0.4915,-0.4881,-0.4852,-0.485,-0.4824,-0.4818,-0.4784,-0.4775,-0.4757,0,0]},{"header":{"parameterUnit":"m.s-1","parameterCategory":1,"la1":30.2992,"la2":30.254,"lo1":-89.0895,"lo2":-89.0443,"dy":0.0025,"dx":0.0025,"nx":19,"ny":19,"refTime":"2026-04-16T09:00:00:Z","depth":0,"parameterNumber":3,"parameterNumberName":"V-component_of_WINDS"},"data":[0,0,0,4.265,4.2648,4.2552,4.2551,4.2432,4.2431,0,0,0,0,0,0,0,0,0,0,0,4.2683,4.2683,4.265,4.2648,4.2552,4.2551,4.2432,4.2431,0,0,0,0,0,0,0,0,0,0,0,4.2683,4.2683,4.2682,4.2648,4.2552,4.2551,4.2433,4.2503,0,0,0,0,0,0,0,0,0,0,4.2596,4.2631,4.2683,4.2682,4.2647,4.2552,4.2551,4.2507,4.2499,4.2478,0,4.2463,0,4.2446,4.2424,4.2423,0,0,0,4.2644,4.2638,4.2608,4.2682,4.2646,4.2552,4.2594,4.2502,4.2494,4.2468,4.2461,4.2457,4.2444,4.2423,4.2422,4.2324,4.2324,0,0,4.2649,4.2667,4.2614,4.2603,4.262,4.2597,4.2591,4.2497,4.249,4.2461,4.2454,4.2442,4.2422,4.2421,4.2324,4.2324,0,0,0,4.2667,4.2671,4.2644,4.2608,4.259,4.2595,4.2587,4.2494,4.2484,4.2452,4.244,4.2422,4.242,4.2324,4.2324,4.233,0,0,0,4.267,4.2682,4.2646,4.2657,4.2592,4.2541,4.2587,4.249,4.2479,4.2441,4.2422,4.2419,4.2325,4.2324,4.233,4.2329,0,0,0,4.2688,4.2684,4.2672,4.2658,4.2617,4.2542,4.2527,4.2487,4.2472,4.2423,4.2419,4.2325,4.2324,4.2331,4.233,4.2309,0,0,0,4.2711,4.2676,4.2672,4.2629,4.2618,4.2548,4.2527,4.2473,4.2432,4.2421,4.2325,4.2324,4.2331,4.233,4.231,4.2296,4.2292,0,0,4.2677,4.2673,4.2646,4.2639,4.2575,4.2561,4.2496,4.244,4.2417,4.2356,4.2353,4.233,4.233,4.2309,4.2263,4.226,0,0,0,4.2641,4.2622,4.2601,4.2565,4.2523,4.2487,4.244,4.2419,4.2367,4.239,4.2317,4.2316,4.2303,4.2295,4.2293,4.2281,4.2321,4.2321,4.2322,4.2618,4.2594,4.2548,4.2512,4.2477,4.2431,4.2399,4.2363,4.2346,4.233,4.2311,4.2286,4.2278,4.2276,4.2264,4.2302,4.2302,4.2302,4.2302,4.2566,4.2535,4.2517,4.2466,4.2441,4.2396,4.235,4.234,4.2295,4.2298,4.2285,4.229,4.2273,4.2262,4.2302,4.2302,4.2302,4.2302,4.2302,4.2547,4.2529,4.2507,4.2454,4.2415,4.238,4.2338,4.2315,4.2293,4.2281,4.2259,4.2259,4.2256,4.2273,4.2273,4.2272,4.2272,4.2272,4.2272,4.2537,4.2512,4.2481,4.2437,4.2412,4.2376,4.233,4.2304,4.2269,4.2255,4.2255,4.224,4.2277,4.2287,4.2271,4.2271,4.2271,4.2271,4.2271,4.2493,4.25,4.2452,4.2427,4.2374,4.2338,4.2311,4.226,4.2235,4.2215,4.2204,4.2235,4.2228,4.223,4.2237,4.221,4.221,4.221,4.221,4.2477,4.2473,4.242,4.2382,4.2342,4.2314,4.226,4.2225,4.2188,4.2171,4.2172,4.2181,4.2184,4.2175,4.2178,4.2185,4.2144,4.2144,4.2144,4.2449,4.244,4.2399,4.2367,4.2324,4.2287,4.2236,4.2192,4.2152,4.2141,4.2158,4.216,4.2174,4.218,4.2167,4.2173,4.2185,0,0]}]]